Wind_Speed
58 61 60 60 57 56 55 55 55 51 48 49 47 46 44 42 42 38 36 36 37 43 46 46 51 50 49 48 48 44 41 41 40 35 34 35 38 42 46 49 54 61 66
54 56 55 56 56 54 53 53 55 50 49 45 48 51 49 52 40 38 40 38 37 43 48 50 52 48 49 46 37 39 40 38 35 33 36 40 42 46 50 55 60 65 68
50 53 52 52 54 52 52 48 49 50 49 60 52 44 39 41 47 47 50 46 44 48 51 48 50 50 42 35 37 33 33 35 35 38 40 43 47 51 55 59 63 65 70
46 49 50 50 52 51 47 40 44 44 45 45 51 54 50 41 35 48 45 45 49 50 53 52 44 34 39 32 28 30 33 34 38 40 44 48 52 56 60 62 64 68 71
42 45 46 47 48 50 45 41 29 41 32 41 37 36 35 28 28 37 41 44 51 54 47 35 33 30 26 27 28 30 34 37 41 45 49 53 58 62 63 65 67 70 73
37 42 42 44 46 46 46 35 39 43 44 29 25 31 31 29 29 33 33 39 47 51 34 30 27 28 29 28 30 33 38 42 47 50 54 59 62 64 66 69 71 73 75
30 34 30 44 43 43 50 51 48 33 36 31 31 31 30 30 37 43 45 46 48 45 34 25 26 27 28 31 34 39 43 48 51 56 61 64 66 68 70 71 73 76 78
22 26 28 33 38 41 47 58 57 29 28 32 37 32 33 34 38 45 43 41 35 26 21 23 27 28 32 35 40 45 50 53 58 62 65 67 69 71 73 74 76 79 82
25 14 18 18 20 29 40 51 50 39 45 44 45 40 43 43 45 40 36 31 20 19 23 25 29 33 37 40 44 49 54 59 62 65 68 70 72 74 76 78 80 83 84
27 19 16 24 22 19 21 34 46 37 32 30 38 40 39 36 36 30 21 19 20 23 26 30 33 37 41 46 50 55 59 61 64 68 70 73 76 79 81 82 84 86 86
20 19 16 14 20 19 24 29 31 28 30 28 29 31 31 23 16 16 18 22 25 27 30 35 38 42 47 51 57 59 61 65 68 70 74 77 80 81 83 84 84 83 82
11 13 18 18 18 22 26 22 24 25 26 27 16 10 11 13 17 20 23 24 28 32 35 38 43 48 53 57 60 63 67 69 72 77 80 80 80 80 82 81 81 81 82
24 23 26 27 27 23 21 21 18 12 8 6 10 15 18 20 21 23 26 29 33 36 40 45 49 54 58 62 66 69 71 73 76 80 80 79 79 80 81 79 80 80 82
12 11 15 16 13 9 6 2 3 8 11 16 18 18 20 22 25 28 31 35 38 42 46 50 55 59 62 65 69 72 75 77 80 79 77 77 78 79 78 79 78 80 81
9 8 7 6 5 5 8 12 15 17 17 18 20 22 24 26 29 32 36 40 43 47 51 56 58 61 64 66 69 72 75 78 77 76 76 77 77 77 77 79 80 81 83
8 7 9 11 12 13 14 16 18 19 20 22 24 27 29 32 35 38 42 46 50 54 56 57 59 60 63 66 69 73 77 78 77 77 78 78 78 78 78 79 81 82 84
10 8 7 9 11 13 15 17 20 22 25 27 29 32 35 38 41 45 48 50 51 51 51 54 56 60 65 69 71 73 75 77 77 79 79 79 80 79 78 79 81 82 84
13 12 11 12 14 16 19 21 23 25 27 30 32 34 36 37 39 41 43 44 45 46 49 53 56 59 63 68 74 76 79 80 81 82 82 80 79 79 79 80 81 83 85
15 15 16 17 19 20 21 23 25 27 28 29 31 33 33 33 34 34 36 39 43 45 47 51 57 62 68 75 79 80 80 80 82 83 81 79 79 80 79 81 82 84 86
18 18 19 20 20 21 21 22 22 22 23 25 27 27 27 29 31 33 36 40 43 48 53 58 63 68 73 78 80 79 79 80 80 80 79 79 79 79 80 81 84 85 87
21 20 19 18 18 19 20 21 21 22 23 24 26 26 26 28 31 38 42 46 51 55 58 62 66 70 76 80 80 77 77 77 77 77 77 78 78 79 81 83 85 86 88
16 17 17 19 22 22 22 20 23 26 27 30 31 33 36 39 41 46 49 53 55 59 63 66 69 74 78 79 78 77 76 76 75 76 76 77 78 79 82 84 85 86 87
19 19 21 23 25 25 26 28 29 29 32 34 36 40 43 46 50 55 56 59 63 65 67 69 71 75 79 79 80 80 76 74 74 76 78 78 77 79 81 83 85 86 85
25 26 26 26 27 28 28 29 31 34 38 42 46 49 52 55 58 61 63 64 67 68 70 71 73 76 78 79 80 77 75 76 77 79 81 81 80 81 82 84 84 84 81
22 23 26 28 30 32 35 38 42 44 48 48 52 55 58 59 62 63 65 67 68 69 70 72 74 77 79 79 77 76 76 77 79 81 82 81 82 83 83 83 82 79 65
25 29 32 35 37 38 40 43 47 49 51 54 56 57 59 61 63 66 68 69 69 69 72 74 77 79 79 77 77 78 77 77 79 82 82 82 82 82 81 80 76 62 52
Wind_Direction
222 223 224 224 226 228 231 233 234 234 231 246 246 261 257 262 263 263 268 273 277 286 285 278 271 281 287 287 290 287 280 286 296 298 294 294 298 302 304 305 306 307 308
222 221 221 222 222 225 229 231 233 233 234 247 253 246 250 249 260 264 267 275 283 281 281 278 275 283 285 286 283 277 291 303 295 291 294 300 304 306 308 307 308 309 309
218 220 219 220 220 221 227 231 235 234 232 234 245 248 242 245 262 257 269 269 272 282 283 277 287 289 282 270 281 299 298 292 289 295 300 304 307 307 307 307 307 308 309
213 215 218 219 217 218 217 220 230 226 232 245 248 255 251 250 256 256 260 277 275 283 286 286 288 275 273 287 296 291 283 288 296 301 304 306 306 306 306 307 306 307 309
207 209 214 217 218 216 208 210 217 217 240 239 231 226 230 247 255 260 270 274 280 281 286 276 274 280 289 289 285 283 292 296 299 302 305 306 306 306 305 304 303 305 308
203 205 205 215 218 216 203 206 230 240 235 230 224 234 247 254 261 265 272 282 283 287 275 271 280 286 288 280 284 291 295 298 301 303 305 307 308 307 302 302 304 305 306
196 199 204 212 217 213 207 210 217 228 247 245 248 257 269 264 270 281 283 285 281 270 266 280 284 281 278 285 289 295 298 300 304 305 306 307 307 305 303 301 303 307 309
179 193 205 214 215 215 209 214 228 239 260 263 272 278 278 287 278 282 279 277 258 269 288 287 276 276 285 291 295 298 301 304 304 305 307 308 307 306 303 304 306 308 310
149 152 174 184 216 221 215 221 225 255 259 266 272 278 283 276 274 268 259 255 286 296 280 279 281 286 292 296 298 301 304 304 306 307 308 308 307 306 306 307 308 309 311
141 141 150 187 188 194 216 223 228 260 260 257 261 261 261 253 253 250 273 304 293 276 275 281 288 292 297 301 304 304 303 305 306 308 308 308 309 308 307 306 308 310 312
136 145 158 171 183 192 210 211 222 231 243 245 246 241 236 248 276 303 288 275 273 280 286 289 295 299 302 303 304 304 305 307 309 308 307 307 309 310 310 311 313 314 315
162 176 199 190 196 200 209 229 226 217 219 222 227 258 305 305 286 277 274 277 281 286 292 297 301 302 303 303 303 304 307 307 307 307 307 307 309 311 313 315 314 315 317
126 132 140 145 153 162 171 182 184 190 207 265 304 300 285 277 273 273 276 281 286 292 297 300 301 302 304 305 307 306 305 305 307 307 308 309 310 312 314 315 316 319 321
104 123 148 156 157 151 158 155 317 301 277 268 272 270 270 273 274 277 283 289 294 297 301 303 304 306 307 308 308 308 307 306 307 308 309 311 312 314 315 316 318 319 321
37 19 9 355 333 294 271 267 273 272 270 270 270 271 273 276 280 285 289 293 296 299 301 303 306 309 312 312 309 308 308 309 309 311 311 312 314 314 315 316 317 318 320
352 327 313 307 300 288 282 280 279 278 278 277 277 279 283 286 289 291 296 299 300 303 306 308 311 313 312 311 312 312 312 312 313 313 313 313 313 314 314 315 316 317 319
349 334 319 315 311 307 300 299 300 299 298 297 295 293 292 293 295 297 299 302 303 307 312 314 314 314 314 314 314 314 314 314 315 315 315 314 314 314 313 314 315 317 319
344 342 335 328 324 320 319 315 312 309 309 307 305 303 302 303 305 307 309 311 313 313 315 315 316 318 318 317 317 317 316 316 316 316 315 314 314 313 313 314 316 317 318
355 351 346 341 338 334 331 326 322 318 315 313 311 309 308 307 307 311 315 316 315 313 313 316 319 320 319 317 318 318 316 315 315 314 314 314 313 313 314 315 315 317 318
343 341 338 336 333 330 327 324 322 324 326 327 325 323 319 320 320 317 316 315 317 318 318 318 317 316 315 315 317 316 315 314 315 313 314 313 313 314 314 315 315 316 317
338 339 340 339 341 343 345 347 347 345 342 337 334 328 323 320 318 317 316 315 314 315 317 317 315 313 314 315 315 314 314 313 313 314 313 313 314 314 314 315 315 316 318
7 14 19 24 20 11 5 360 353 344 338 333 327 319 314 310 309 309 309 309 311 312 312 311 312 313 313 313 313 313 314 314 313 313 315 315 315 314 314 315 315 317 320
28 18 7 1 356 350 345 339 330 322 319 314 309 307 305 305 303 304 303 305 308 307 308 310 312 314 314 315 314 315 314 313 313 314 315 316 315 315 315 316 317 319 319
5 355 348 342 333 327 321 316 312 312 310 308 308 309 309 307 306 302 301 302 304 307 308 310 312 313 314 315 315 315 315 314 315 315 316 316 316 316 316 317 318 319 321
340 337 331 325 321 316 312 312 311 311 310 307 307 303 300 302 303 303 303 304 306 308 310 312 313 313 315 315 316 314 313 314 314 315 316 316 317 317 317 317 318 320 319
325 321 318 313 309 307 306 307 305 304 302 303 304 303 303 303 303 304 305 307 309 310 311 312 313 314 316 316 314 313 314 314 314 314 315 315 315 315 316 318 319 320 317
Height
5555 5566 5580 5591 5601 5611 5619 5627 5633 5641 5649 5653 5656 5654 5649 5656 5657 5655 5656 5655 5656 5654 5651 5649 5646 5643 5639 5635 5630 5627 5624 5621 5616 5613 5608 5603 5598 5592 5586 5580 5573 5564 5554
5547 5557 5569 5579 5589 5600 5609 5616 5622 5631 5638 5641 5642 5645 5645 5647 5644 5646 5645 5645 5644 5644 5641 5639 5636 5631 5627 5623 5619 5617 5614 5610 5608 5603 5599 5593 5587 5580 5574 5566 5559 5549 5539
5536 5548 5559 5568 5579 5589 5599 5607 5614 5620 5624 5630 5631 5633 5634 5636 5635 5635 5636 5636 5635 5633 5630 5627 5623 5621 5618 5614 5611 5609 5605 5602 5598 5593 5587 5581 5575 5568 5561 5553 5545 5536 5524
5527 5539 5550 5559 5569 5579 5589 5599 5606 5609 5614 5618 5620 5623 5624 5624 5626 5627 5627 5626 5625 5623 5620 5618 5614 5611 5608 5605 5603 5599 5596 5592 5588 5582 5576 5570 5563 5557 5549 5542 5532 5522 5510
5521 5533 5543 5553 5562 5571 5581 5591 5596 5599 5602 5607 5610 5612 5614 5616 5617 5618 5617 5615 5614 5613 5611 5607 5604 5602 5598 5595 5593 5591 5586 5582 5577 5571 5565 5558 5551 5543 5535 5526 5518 5510 5497
5516 5528 5538 5547 5557 5566 5575 5583 5588 5593 5598 5598 5599 5601 5604 5607 5608 5607 5605 5606 5604 5602 5601 5596 5594 5591 5589 5587 5585 5581 5577 5572 5567 5559 5553 5545 5537 5529 5520 5511 5502 5493 5486
5516 5525 5533 5542 5552 5561 5569 5577 5581 5586 5590 5591 5592 5595 5597 5596 5597 5598 5597 5595 5594 5594 5590 5588 5586 5584 5582 5580 5576 5571 5567 5561 5553 5547 5540 5532 5522 5514 5505 5496 5485 5473 5461
5516 5525 5534 5540 5548 5555 5564 5569 5574 5577 5577 5580 5583 5584 5585 5585 5589 5588 5586 5586 5585 5582 5581 5581 5580 5578 5574 5571 5567 5562 5556 5549 5542 5534 5525 5515 5505 5497 5488 5477 5467 5455 5443
5519 5526 5533 5541 5546 5553 5560 5566 5570 5572 5573 5576 5578 5578 5576 5577 5581 5582 5580 5579 5576 5576 5576 5575 5572 5569 5566 5562 5558 5551 5544 5537 5527 5518 5509 5499 5489 5479 5469 5458 5447 5435 5425
5523 5530 5535 5541 5547 5552 5557 5561 5568 5568 5570 5573 5573 5573 5574 5576 5575 5574 5572 5571 5571 5571 5569 5568 5565 5561 5557 5551 5546 5540 5532 5522 5511 5501 5491 5481 5472 5460 5449 5439 5428 5416 5403
5528 5533 5538 5542 5546 5550 5555 5559 5563 5566 5568 5568 5569 5570 5570 5570 5569 5568 5568 5567 5567 5566 5564 5561 5556 5552 5547 5541 5535 5527 5518 5508 5497 5489 5478 5468 5455 5443 5431 5418 5406 5395 5381
5532 5536 5540 5543 5547 5549 5552 5555 5558 5560 5562 5564 5566 5566 5566 5565 5565 5564 5564 5563 5562 5559 5555 5550 5546 5542 5536 5529 5521 5513 5504 5494 5484 5474 5464 5451 5439 5426 5414 5401 5389 5378 5362
5537 5540 5542 5544 5547 5550 5551 5554 5557 5559 5560 5562 5562 5561 5561 5560 5560 5560 5559 5556 5554 5550 5546 5541 5536 5531 5524 5515 5505 5497 5488 5480 5470 5460 5447 5434 5422 5410 5398 5388 5374 5360 5342
5546 5547 5548 5549 5551 5552 5554 5555 5556 5557 5558 5558 5557 5557 5557 5556 5555 5554 5552 5549 5545 5540 5535 5529 5524 5517 5509 5500 5491 5483 5474 5464 5453 5442 5430 5418 5406 5394 5381 5369 5357 5343 5331
5550 5551 5552 5553 5553 5555 5556 5555 5555 5555 5555 5553 5553 5552 5551 5549 5548 5545 5542 5538 5533 5528 5523 5517 5511 5504 5495 5486 5478 5468 5458 5446 5434 5423 5412 5402 5389 5377 5364 5350 5338 5327 5314
5551 5551 5551 5552 5552 5552 5552 5551 5550 5549 5548 5547 5546 5545 5544 5541 5538 5535 5531 5526 5521 5516 5511 5506 5499 5491 5482 5473 5462 5450 5438 5428 5417 5407 5395 5384 5372 5359 5347 5334 5321 5309 5297
5550 5550 5550 5549 5549 5548 5548 5547 5545 5544 5543 5541 5540 5537 5535 5532 5528 5524 5520 5515 5510 5505 5499 5492 5484 5476 5467 5458 5448 5436 5425 5412 5402 5390 5377 5365 5353 5341 5329 5318 5305 5292 5280
5548 5547 5547 5546 5545 5544 5543 5542 5541 5539 5537 5535 5532 5529 5526 5522 5518 5514 5509 5504 5499 5492 5486 5479 5471 5462 5453 5442 5432 5420 5408 5395 5383 5370 5358 5346 5335 5324 5312 5299 5287 5274 5261
5548 5546 5545 5544 5542 5541 5539 5537 5535 5532 5529 5526 5522 5519 5515 5511 5507 5503 5498 5493 5487 5480 5473 5465 5456 5447 5437 5427 5416 5405 5392 5379 5366 5355 5342 5330 5318 5306 5294 5281 5268 5255 5242
5545 5543 5542 5540 5538 5536 5533 5530 5527 5525 5522 5519 5516 5512 5508 5504 5499 5494 5488 5481 5474 5467 5459 5450 5441 5432 5422 5412 5401 5389 5376 5363 5351 5340 5327 5314 5300 5287 5275 5262 5249 5236 5222
5541 5539 5537 5535 5533 5531 5528 5526 5523 5520 5517 5514 5510 5505 5501 5496 5491 5485 5478 5471 5463 5454 5445 5436 5427 5418 5407 5395 5385 5372 5359 5347 5335 5324 5311 5298 5284 5270 5256 5243 5229 5215 5202
5539 5537 5536 5534 5531 5529 5526 5523 5520 5517 5513 5509 5504 5499 5493 5488 5481 5474 5466 5458 5450 5441 5432 5423 5412 5400 5390 5378 5366 5354 5341 5330 5318 5307 5294 5281 5267 5252 5238 5224 5210 5196 5181
5540 5538 5536 5533 5530 5526 5523 5520 5516 5512 5507 5501 5496 5490 5484 5478 5470 5462 5454 5445 5436 5426 5415 5406 5395 5383 5371 5358 5346 5334 5324 5312 5300 5288 5277 5264 5249 5234 5220 5207 5192 5178 5164
5539 5536 5533 5530 5527 5523 5518 5514 5509 5504 5499 5493 5487 5480 5472 5465 5457 5448 5439 5430 5420 5409 5397 5387 5376 5365 5353 5340 5327 5314 5302 5290 5279 5267 5255 5244 5230 5215 5201 5187 5172 5159 5145
5536 5532 5529 5525 5520 5515 5511 5506 5501 5495 5488 5481 5474 5466 5458 5449 5441 5432 5423 5414 5403 5392 5380 5368 5356 5345 5333 5321 5308 5295 5283 5272 5259 5246 5237 5225 5211 5195 5181 5168 5155 5142 5129
5528 5524 5520 5516 5511 5506 5500 5494 5487 5481 5474 5467 5460 5451 5443 5434 5425 5415 5405 5395 5384 5374 5363 5351 5338 5326 5314 5302 5290 5277 5265 5252 5240 5227 5216 5206 5193 5178 5164 5152 5138 5126 5116